Time,TemperatureF,DewpointF,PressureIn,WindDirection,WindDirectionDegrees,WindSpeedMPH,WindSpeedGustMPH,Humidity,HourlyPrecipIn,Conditions,Clouds,dailyrainin,SoftwareType,DateUTC
2013-02-19 00:00:00,43.2,34.5,30.31,North,0,0.0,0.0,71,0.00,,,0.00,WUHU216HW,2013-02-19 05:00:00,
2013-02-19 00:01:00,43.2,34.5,30.31,North,0,0.0,0.0,71,0.00,,,0.00,WUHU216HW,2013-02-19 05:01:00,
2013-02-19 00:06:00,43.4,34.7,30.31,North,0,0.0,0.0,71,0.00,,,0.00,WUHU216HW,2013-02-19 05:06:00,
2013-02-19 00:11:00,43.6,34.8,30.31,North,0,0.0,0.0,71,0.00,,,0.00,WUHU216HW,2013-02-19 05:11:00,
2013-02-19 00:16:00,43.7,35.0,30.31,North,0,0.0,0.0,71,0.00,,,0.00,WUHU216HW,2013-02-19 05:16:00,
2013-02-19 00:21:00,43.9,35.5,30.31,North,0,0.0,0.0,72,0.00,,,0.00,WUHU216HW,2013-02-19 05:21:00,
2013-02-19 00:26:00,44.3,35.5,30.31,North,0,0.0,0.0,71,0.00,,,0.00,WUHU216HW,2013-02-19 05:26:00,
2013-02-19 00:31:00,44.5,35.7,30.31,North,0,0.0,0.0,71,0.00,,,0.00,WUHU216HW,2013-02-19 05:31:00,
2013-02-19 00:37:00,44.6,35.8,30.31,North,0,0.0,0.0,71,0.00,,,0.00,WUHU216HW,2013-02-19 05:37:00,
2013-02-19 00:42:00,45.0,36.2,30.31,North,0,0.0,0.0,71,0.00,,,0.00,WUHU216HW,2013-02-19 05:42:00,
2013-02-19 00:47:00,45.7,36.5,30.30,North,0,0.0,0.0,70,0.00,,,0.00,WUHU216HW,2013-02-19 05:47:00,
2013-02-19 00:52:00,46.3,37.1,30.30,North,0,0.0,0.0,70,0.00,,,0.00,WUHU216HW,2013-02-19 05:52:00,
2013-02-19 00:57:00,46.4,37.3,30.30,North,0,0.0,0.0,70,0.00,,,0.00,WUHU216HW,2013-02-19 05:57:00,
2013-02-19 01:02:00,46.6,37.0,30.30,North,0,0.0,0.0,69,0.00,,,0.00,WUHU216HW,2013-02-19 06:02:00,
2013-02-19 01:07:00,46.6,37.0,30.30,North,0,0.0,0.0,69,0.00,,,0.00,WUHU216HW,2013-02-19 06:07:00,
2013-02-19 01:12:00,46.4,37.3,30.30,North,0,0.0,0.0,70,0.00,,,0.00,WUHU216HW,2013-02-19 06:12:00,
2013-02-19 01:17:00,46.1,36.9,30.30,North,0,0.0,0.0,70,0.00,,,0.00,WUHU216HW,2013-02-19 06:17:00,
2013-02-19 01:22:00,46.1,36.9,30.30,North,0,0.0,0.0,70,0.00,,,0.00,WUHU216HW,2013-02-19 06:22:00,
2013-02-19 01:27:00,46.1,36.9,30.29,North,0,0.0,0.0,70,0.00,,,0.00,WUHU216HW,2013-02-19 06:27:00,
2013-02-19 01:33:00,46.1,36.6,30.29,North,0,0.0,0.0,69,0.00,,,0.00,WUHU216HW,2013-02-19 06:33:00,
2013-02-19 01:38:00,46.4,36.9,30.29,North,0,0.0,0.0,69,0.00,,,0.00,WUHU216HW,2013-02-19 06:38:00,
2013-02-19 01:43:00,46.8,36.8,30.29,North,0,0.0,0.0,68,0.00,,,0.00,WUHU216HW,2013-02-19 06:43:00,
2013-02-19 01:48:00,47.0,36.5,30.28,North,0,0.0,0.0,67,0.00,,,0.00,WUHU216HW,2013-02-19 06:48:00,
2013-02-19 01:53:00,46.4,36.5,30.28,North,0,0.0,0.0,68,0.00,,,0.00,WUHU216HW,2013-02-19 06:53:00,
2013-02-19 01:58:00,45.7,35.7,30.28,North,0,0.0,0.0,68,0.00,,,0.00,WUHU216HW,2013-02-19 06:58:00,
2013-02-19 02:03:00,45.4,35.4,30.28,North,0,0.0,0.0,68,0.00,,,0.00,WUHU216HW,2013-02-19 07:03:00,
2013-02-19 02:08:00,45.7,35.7,30.27,North,0,0.0,0.0,68,0.00,,,0.00,WUHU216HW,2013-02-19 07:08:00,
2013-02-19 02:13:00,45.9,35.9,30.27,North,0,0.0,0.0,68,0.00,,,0.00,WUHU216HW,2013-02-19 07:13:00,
2013-02-19 02:18:00,45.7,35.7,30.27,North,0,0.0,0.0,68,0.00,,,0.00,WUHU216HW,2013-02-19 07:18:00,
2013-02-19 02:23:00,46.1,35.7,30.26,North,0,0.0,0.0,67,0.00,,,0.00,WUHU216HW,2013-02-19 07:23:00,
2013-02-19 02:28:00,46.3,35.5,30.26,North,0,0.0,0.0,66,0.00,,,0.00,WUHU216HW,2013-02-19 07:28:00,
2013-02-19 02:33:00,46.4,36.1,30.26,North,0,0.0,0.0,67,0.00,,,0.00,WUHU216HW,2013-02-19 07:33:00,
2013-02-19 02:39:00,46.3,35.9,30.26,North,0,0.0,0.0,67,0.00,,,0.00,WUHU216HW,2013-02-19 07:39:00,
2013-02-19 02:44:00,46.1,36.1,30.25,North,0,0.0,0.0,68,0.00,,,0.00,WUHU216HW,2013-02-19 07:44:00,
2013-02-19 02:49:00,46.3,35.9,30.26,North,0,0.0,0.0,67,0.00,,,0.00,WUHU216HW,2013-02-19 07:49:00,
2013-02-19 02:54:00,46.1,35.7,30.25,North,0,0.0,0.0,67,0.00,,,0.00,WUHU216HW,2013-02-19 07:54:00,
2013-02-19 02:59:00,46.1,35.7,30.25,North,0,0.0,0.0,67,0.00,,,0.00,WUHU216HW,2013-02-19 07:59:00,
2013-02-19 03:04:00,46.3,35.9,30.25,North,0,0.0,0.0,67,0.00,,,0.00,WUHU216HW,2013-02-19 08:04:00,
2013-02-19 03:09:00,46.3,35.9,30.24,North,0,0.0,0.0,67,0.00,,,0.00,WUHU216HW,2013-02-19 08:09:00,
2013-02-19 03:14:00,46.3,35.9,30.24,North,0,0.0,0.0,67,0.00,,,0.00,WUHU216HW,2013-02-19 08:14:00,
2013-02-19 03:19:00,46.3,35.9,30.24,North,0,0.0,0.0,67,0.00,,,0.00,WUHU216HW,2013-02-19 08:19:00,
2013-02-19 03:24:00,46.4,36.1,30.24,North,0,0.0,0.0,67,0.00,,,0.00,WUHU216HW,2013-02-19 08:24:00,
2013-02-19 03:29:00,46.4,36.1,30.24,North,0,0.0,0.0,67,0.00,,,0.00,WUHU216HW,2013-02-19 08:29:00,
2013-02-19 03:34:00,46.3,35.9,30.24,North,0,0.0,0.0,67,0.00,,,0.00,WUHU216HW,2013-02-19 08:34:00,
2013-02-19 03:39:00,46.3,35.9,30.24,North,0,0.0,0.0,67,0.00,,,0.00,WUHU216HW,2013-02-19 08:39:00,
2013-02-19 03:44:00,46.1,35.7,30.23,North,0,0.0,0.0,67,0.00,,,0.00,WUHU216HW,2013-02-19 08:44:00,
2013-02-19 03:49:00,45.9,35.6,30.23,North,0,0.0,0.0,67,0.00,,,0.00,WUHU216HW,2013-02-19 08:49:00,
2013-02-19 03:54:00,45.7,35.4,30.23,North,0,0.0,0.0,67,0.00,,,0.00,WUHU216HW,2013-02-19 08:54:00,
2013-02-19 03:59:00,46.1,35.7,30.22,North,0,0.0,0.0,67,0.00,,,0.00,WUHU216HW,2013-02-19 08:59:00,
2013-02-19 04:04:00,46.3,35.5,30.22,North,0,0.0,0.0,66,0.00,,,0.00,WUHU216HW,2013-02-19 09:04:00,
2013-02-19 04:09:00,46.8,35.7,30.22,North,0,0.0,0.0,65,0.00,,,0.00,WUHU216HW,2013-02-19 09:09:00,
2013-02-19 04:14:00,47.2,36.0,30.22,North,0,0.0,0.0,65,0.00,,,0.00,WUHU216HW,2013-02-19 09:14:00,
2013-02-19 04:20:00,47.7,36.1,30.22,North,0,0.0,0.0,64,0.00,,,0.00,WUHU216HW,2013-02-19 09:20:00,
2013-02-19 04:25:00,47.9,36.3,30.21,North,0,0.0,0.0,64,0.00,,,0.00,WUHU216HW,2013-02-19 09:25:00,
2013-02-19 04:30:00,48.2,36.6,30.21,North,0,0.0,0.0,64,0.00,,,0.00,WUHU216HW,2013-02-19 09:30:00,
2013-02-19 04:35:00,48.2,36.6,30.21,North,0,0.0,0.0,64,0.00,,,0.00,WUHU216HW,2013-02-19 09:35:00,
2013-02-19 04:40:00,48.2,36.6,30.20,North,0,0.0,0.0,64,0.00,,,0.00,WUHU216HW,2013-02-19 09:40:00,
2013-02-19 04:45:00,48.1,36.5,30.20,North,0,0.0,0.0,64,0.00,,,0.00,WUHU216HW,2013-02-19 09:45:00,
2013-02-19 04:50:00,47.7,36.1,30.20,North,0,0.0,0.0,64,0.00,,,0.00,WUHU216HW,2013-02-19 09:50:00,
2013-02-19 04:55:00,47.5,36.3,30.20,North,0,0.0,0.0,65,0.00,,,0.00,WUHU216HW,2013-02-19 09:55:00,
2013-02-19 05:00:00,47.7,36.5,30.20,North,0,0.0,0.0,65,0.00,,,0.00,WUHU216HW,2013-02-19 10:00:00,
2013-02-19 05:05:00,47.5,36.3,30.20,North,0,0.0,0.0,65,0.00,,,0.00,WUHU216HW,2013-02-19 10:05:00,
2013-02-19 05:10:00,47.3,36.2,30.20,North,0,0.0,0.0,65,0.00,,,0.00,WUHU216HW,2013-02-19 10:10:00,
2013-02-19 05:16:00,47.5,36.3,30.19,North,0,0.0,0.0,65,0.00,,,0.00,WUHU216HW,2013-02-19 10:16:00,
2013-02-19 05:21:00,47.5,36.3,30.19,North,0,0.0,0.0,65,0.00,,,0.00,WUHU216HW,2013-02-19 10:21:00,
2013-02-19 05:26:00,47.3,36.2,30.19,North,0,0.0,0.0,65,0.00,,,0.00,WUHU216HW,2013-02-19 10:26:00,
2013-02-19 05:31:00,47.2,36.0,30.19,North,0,0.0,0.0,65,0.00,,,0.00,WUHU216HW,2013-02-19 10:31:00,
2013-02-19 05:36:00,47.2,36.0,30.19,North,0,0.0,0.0,65,0.00,,,0.00,WUHU216HW,2013-02-19 10:36:00,
2013-02-19 05:41:00,47.2,36.0,30.19,North,0,0.0,0.0,65,0.00,,,0.00,WUHU216HW,2013-02-19 10:41:00,
2013-02-19 05:46:00,47.3,36.2,30.19,North,0,0.0,0.0,65,0.00,,,0.00,WUHU216HW,2013-02-19 10:46:00,
2013-02-19 05:51:00,47.5,35.9,30.19,North,0,0.0,0.0,64,0.00,,,0.00,WUHU216HW,2013-02-19 10:51:00,
2013-02-19 05:56:00,47.7,36.1,30.18,North,0,0.0,0.0,64,0.00,,,0.00,WUHU216HW,2013-02-19 10:56:00,
2013-02-19 06:01:00,47.7,36.1,30.18,North,0,0.0,0.0,64,0.00,,,0.00,WUHU216HW,2013-02-19 11:01:00,
2013-02-19 06:06:00,47.9,36.3,30.18,North,0,0.0,0.0,64,0.00,,,0.00,WUHU216HW,2013-02-19 11:06:00,
2013-02-19 06:11:00,48.1,36.5,30.17,North,0,0.0,0.0,64,0.00,,,0.00,WUHU216HW,2013-02-19 11:11:00,
2013-02-19 06:16:00,47.9,36.3,30.17,North,0,0.0,0.0,64,0.00,,,0.00,WUHU216HW,2013-02-19 11:16:00,
2013-02-19 06:21:00,48.1,36.5,30.17,North,0,0.0,0.0,64,0.00,,,0.00,WUHU216HW,2013-02-19 11:21:00,
2013-02-19 06:26:00,48.2,36.6,30.17,North,0,0.0,0.0,64,0.00,,,0.00,WUHU216HW,2013-02-19 11:26:00,
2013-02-19 06:31:00,48.1,36.5,30.17,North,0,0.0,0.0,64,0.00,,,0.00,WUHU216HW,2013-02-19 11:31:00,
2013-02-19 06:36:00,47.9,36.3,30.17,North,0,0.0,0.0,64,0.00,,,0.00,WUHU216HW,2013-02-19 11:36:00,
2013-02-19 06:42:00,47.7,36.1,30.17,North,0,0.0,0.0,64,0.00,,,0.00,WUHU216HW,2013-02-19 11:42:00,
2013-02-19 06:47:00,48.4,36.4,30.17,North,0,0.0,0.0,63,0.00,,,0.00,WUHU216HW,2013-02-19 11:47:00,
2013-02-19 06:52:00,48.6,36.5,30.17,North,0,0.0,0.0,63,0.00,,,0.00,WUHU216HW,2013-02-19 11:52:00,
2013-02-19 06:57:00,48.6,37.0,30.16,North,0,0.0,0.0,64,0.00,,,0.00,WUHU216HW,2013-02-19 11:57:00,
2013-02-19 07:02:00,48.6,37.0,30.17,North,0,0.0,0.0,64,0.00,,,0.00,WUHU216HW,2013-02-19 12:02:00,
2013-02-19 07:07:00,49.1,37.4,30.17,North,0,0.0,0.0,64,0.00,,,0.00,WUHU216HW,2013-02-19 12:07:00,
2013-02-19 07:12:00,49.7,38.0,30.16,North,0,0.0,0.0,64,0.00,,,0.00,WUHU216HW,2013-02-19 12:12:00,
2013-02-19 07:17:00,50.0,38.4,30.16,North,0,0.0,0.0,64,0.00,,,0.00,WUHU216HW,2013-02-19 12:17:00,
2013-02-19 07:22:00,50.0,38.4,30.17,North,0,0.0,0.0,64,0.00,,,0.00,WUHU216HW,2013-02-19 12:22:00,
2013-02-19 07:27:00,50.4,38.6,30.17,North,0,0.0,0.0,64,0.00,,,0.00,WUHU216HW,2013-02-19 12:27:00,
2013-02-19 07:32:00,50.8,39.0,30.17,North,0,0.0,0.0,64,0.00,,,0.00,WUHU216HW,2013-02-19 12:32:00,
2013-02-19 07:37:00,50.9,39.2,30.17,North,0,0.0,0.0,64,0.00,,,0.00,WUHU216HW,2013-02-19 12:37:00,
2013-02-19 07:42:00,50.9,39.2,30.17,North,0,0.0,0.0,64,0.00,,,0.00,WUHU216HW,2013-02-19 12:42:00,
2013-02-19 07:47:00,50.8,39.0,30.17,North,0,0.0,0.0,64,0.00,,,0.00,WUHU216HW,2013-02-19 12:47:00,
2013-02-19 07:52:00,50.9,39.2,30.17,North,0,0.0,0.0,64,0.00,,,0.00,WUHU216HW,2013-02-19 12:52:00,
2013-02-19 07:57:00,51.3,39.5,30.17,North,0,0.0,0.0,64,0.00,,,0.00,WUHU216HW,2013-02-19 12:57:00,
2013-02-19 08:03:00,51.8,40.0,30.17,North,0,0.0,0.0,64,0.00,,,0.00,WUHU216HW,2013-02-19 13:03:00,
2013-02-19 08:08:00,52.2,40.3,30.17,North,0,0.0,0.0,64,0.00,,,0.00,WUHU216HW,2013-02-19 13:08:00,
2013-02-19 08:13:00,52.4,40.5,30.16,North,0,0.0,0.0,64,0.00,,,0.00,WUHU216HW,2013-02-19 13:13:00,
2013-02-19 08:18:00,52.6,40.7,30.16,North,0,0.0,0.0,64,0.00,,,0.00,WUHU216HW,2013-02-19 13:18:00,
2013-02-19 08:23:00,52.9,40.6,30.17,North,0,0.0,0.0,63,0.00,,,0.00,WUHU216HW,2013-02-19 13:23:00,
2013-02-19 08:28:00,53.3,41.0,30.17,North,0,0.0,0.0,63,0.00,,,0.00,WUHU216HW,2013-02-19 13:28:00,
2013-02-19 08:33:00,53.6,41.3,30.17,North,0,0.0,0.0,63,0.00,,,0.00,WUHU216HW,2013-02-19 13:33:00,
2013-02-19 08:38:00,54.0,41.7,30.17,North,0,0.0,0.0,63,0.00,,,0.00,WUHU216HW,2013-02-19 13:38:00,
2013-02-19 08:43:00,54.2,41.9,30.17,North,0,0.0,0.0,63,0.00,,,0.00,WUHU216HW,2013-02-19 13:43:00,
2013-02-19 08:48:00,54.0,41.7,30.17,North,0,0.0,0.0,63,0.06,,,0.04,WUHU216HW,2013-02-19 13:48:00,
2013-02-19 08:53:00,54.2,41.9,30.17,North,0,0.0,0.0,63,0.07,,,0.07,WUHU216HW,2013-02-19 13:53:00,
2013-02-19 08:58:00,54.4,42.0,30.17,North,0,0.0,0.0,63,0.07,,,0.07,WUHU216HW,2013-02-19 13:58:00,
2013-02-19 09:03:00,54.7,42.3,30.17,North,0,0.0,0.0,63,0.07,,,0.07,WUHU216HW,2013-02-19 14:03:00,
2013-02-19 09:08:00,55.4,42.6,30.16,North,0,0.0,0.0,62,0.07,,,0.07,WUHU216HW,2013-02-19 14:08:00,
2013-02-19 09:14:00,56.5,43.7,30.15,North,0,0.0,0.0,62,0.07,,,0.07,WUHU216HW,2013-02-19 14:14:00,
2013-02-19 09:19:00,57.2,44.4,30.16,North,0,0.0,0.0,62,0.07,,,0.07,WUHU216HW,2013-02-19 14:19:00,
2013-02-19 09:24:00,58.0,44.7,30.15,North,0,0.0,0.0,61,0.07,,,0.07,WUHU216HW,2013-02-19 14:24:00,
2013-02-19 09:29:00,58.7,45.3,30.15,North,0,0.0,0.0,61,0.07,,,0.07,WUHU216HW,2013-02-19 14:29:00,
2013-02-19 09:34:00,59.2,46.2,30.15,North,0,0.0,0.0,62,0.07,,,0.07,WUHU216HW,2013-02-19 14:34:00,
2013-02-19 09:39:00,59.4,46.4,30.16,North,0,0.0,0.0,62,0.07,,,0.07,WUHU216HW,2013-02-19 14:39:00,
2013-02-19 09:44:00,59.8,46.7,30.16,North,0,0.0,0.0,62,0.06,,,0.07,WUHU216HW,2013-02-19 14:44:00,
2013-02-19 09:49:00,59.9,46.9,30.15,North,0,0.0,0.0,62,0.00,,,0.07,WUHU216HW,2013-02-19 14:49:00,
2013-02-19 09:54:00,59.8,46.7,30.16,North,0,0.0,0.0,62,0.00,,,0.07,WUHU216HW,2013-02-19 14:54:00,
2013-02-19 09:59:00,59.4,46.4,30.16,North,0,0.0,0.0,62,0.00,,,0.07,WUHU216HW,2013-02-19 14:59:00,
2013-02-19 10:04:00,59.6,46.5,30.15,North,0,0.0,0.0,62,0.00,,,0.07,WUHU216HW,2013-02-19 15:04:00,
2013-02-19 10:09:00,60.3,47.3,30.14,North,0,0.0,0.0,62,0.00,,,0.07,WUHU216HW,2013-02-19 15:09:00,
2013-02-19 10:14:00,60.8,47.8,30.14,North,0,0.0,0.0,62,0.00,,,0.07,WUHU216HW,2013-02-19 15:14:00,
2013-02-19 10:20:00,61.2,48.2,30.14,North,0,0.0,0.0,62,0.00,,,0.07,WUHU216HW,2013-02-19 15:20:00,
2013-02-19 10:25:00,61.4,48.3,30.14,North,0,0.0,0.0,62,0.00,,,0.07,WUHU216HW,2013-02-19 15:25:00,
2013-02-19 10:30:00,62.1,49.0,30.13,North,0,0.0,0.0,62,0.00,,,0.07,WUHU216HW,2013-02-19 15:30:00,
2013-02-19 10:35:00,62.6,49.4,30.13,North,0,0.0,0.0,62,0.00,,,0.07,WUHU216HW,2013-02-19 15:35:00,
2013-02-19 10:40:00,62.6,49.9,30.13,North,0,0.0,0.0,63,0.00,,,0.07,WUHU216HW,2013-02-19 15:40:00,
2013-02-19 10:45:00,62.8,50.1,30.13,North,0,0.0,0.0,63,0.00,,,0.07,WUHU216HW,2013-02-19 15:45:00,
2013-02-19 10:50:00,63.4,51.8,30.13,North,0,0.0,0.0,66,0.00,,,0.07,WUHU216HW,2013-02-19 15:50:00,
2013-02-19 10:55:00,63.4,51.8,30.13,North,0,0.0,0.0,66,0.00,,,0.07,WUHU216HW,2013-02-19 15:55:00,
2013-02-19 11:00:00,63.0,51.8,30.12,North,0,0.0,0.0,67,0.00,,,0.07,WUHU216HW,2013-02-19 16:00:00,
2013-02-19 11:05:00,63.0,51.8,30.11,North,0,0.0,0.0,67,0.00,,,0.07,WUHU216HW,2013-02-19 16:05:00,
2013-02-19 11:10:00,63.4,52.2,30.11,North,0,0.0,0.0,67,0.00,,,0.07,WUHU216HW,2013-02-19 16:10:00,
2013-02-19 11:15:00,63.5,52.4,30.11,North,0,0.0,0.0,67,0.00,,,0.07,WUHU216HW,2013-02-19 16:15:00,
2013-02-19 11:20:00,63.4,52.2,30.11,North,0,0.0,0.0,67,0.00,,,0.07,WUHU216HW,2013-02-19 16:20:00,
2013-02-19 11:25:00,62.6,51.9,30.10,North,0,0.0,0.0,68,0.00,,,0.07,WUHU216HW,2013-02-19 16:25:00,
2013-02-19 11:30:00,62.6,51.9,30.10,North,0,0.0,0.0,68,0.00,,,0.07,WUHU216HW,2013-02-19 16:30:00,
2013-02-19 11:35:00,61.9,51.3,30.10,North,0,0.0,0.0,68,0.00,,,0.07,WUHU216HW,2013-02-19 16:35:00,
2013-02-19 11:40:00,60.8,49.9,30.11,North,0,0.0,0.0,67,0.02,,,0.08,WUHU216HW,2013-02-19 16:40:00,
2013-02-19 11:45:00,59.8,48.8,30.11,North,0,0.0,0.0,67,0.02,,,0.09,WUHU216HW,2013-02-19 16:45:00,
2013-02-19 11:50:00,58.9,47.5,30.11,North,0,0.0,0.0,66,0.02,,,0.09,WUHU216HW,2013-02-19 16:50:00,
2013-02-19 11:56:00,58.3,46.5,30.12,North,0,0.0,0.0,65,0.03,,,0.09,WUHU216HW,2013-02-19 16:56:00,
2013-02-19 12:01:00,57.8,46.1,30.11,North,0,0.0,0.0,65,0.03,,,0.10,WUHU216HW,2013-02-19 17:01:00,
2013-02-19 12:06:00,57.6,45.5,30.11,North,0,0.0,0.0,64,0.03,,,0.10,WUHU216HW,2013-02-19 17:06:00,
2013-02-19 12:11:00,57.4,45.3,30.10,North,0,0.0,0.0,64,0.03,,,0.10,WUHU216HW,2013-02-19 17:11:00,
2013-02-19 12:16:00,57.2,45.2,30.10,North,0,0.0,0.0,64,0.03,,,0.10,WUHU216HW,2013-02-19 17:16:00,
2013-02-19 12:21:00,57.1,45.0,30.09,North,0,0.0,0.0,64,0.03,,,0.10,WUHU216HW,2013-02-19 17:21:00,
2013-02-19 12:26:00,57.1,45.0,30.09,North,0,0.0,0.0,64,0.04,,,0.10,WUHU216HW,2013-02-19 17:26:00,
2013-02-19 12:31:00,56.9,44.8,30.09,North,0,0.0,0.0,64,0.04,,,0.11,WUHU216HW,2013-02-19 17:31:00,
2013-02-19 12:36:00,56.9,44.8,30.08,North,0,0.0,0.0,64,0.04,,,0.11,WUHU216HW,2013-02-19 17:36:00,
2013-02-19 12:41:00,56.9,44.8,30.08,North,0,0.0,0.0,64,0.02,,,0.11,WUHU216HW,2013-02-19 17:41:00,
2013-02-19 12:46:00,56.9,44.4,30.08,North,0,0.0,0.0,63,0.02,,,0.11,WUHU216HW,2013-02-19 17:46:00,
2013-02-19 12:51:00,56.7,44.2,30.07,North,0,0.0,0.0,63,0.02,,,0.11,WUHU216HW,2013-02-19 17:51:00,
2013-02-19 12:56:00,56.5,44.0,30.07,North,0,0.0,0.0,63,0.01,,,0.11,WUHU216HW,2013-02-19 17:56:00,
2013-02-19 13:01:00,56.7,44.2,30.06,North,0,0.0,0.0,63,0.01,,,0.11,WUHU216HW,2013-02-19 18:01:00,
2013-02-19 13:06:00,56.9,44.4,30.06,North,0,0.0,0.0,63,0.01,,,0.11,WUHU216HW,2013-02-19 18:06:00,
2013-02-19 13:11:00,56.9,44.4,30.05,North,0,0.0,0.0,63,0.01,,,0.11,WUHU216HW,2013-02-19 18:11:00,
2013-02-19 13:16:00,56.9,44.4,30.05,North,0,0.0,0.0,63,0.01,,,0.11,WUHU216HW,2013-02-19 18:16:00,
2013-02-19 13:21:00,57.1,44.6,30.04,North,0,0.0,0.0,63,0.01,,,0.11,WUHU216HW,2013-02-19 18:21:00,
2013-02-19 13:26:00,57.1,44.6,30.04,North,0,0.0,0.0,63,0.00,,,0.11,WUHU216HW,2013-02-19 18:26:00,
2013-02-19 13:31:00,56.9,44.4,30.03,North,0,0.0,0.0,63,0.00,,,0.11,WUHU216HW,2013-02-19 18:31:00,
2013-02-19 13:36:00,57.1,44.6,30.03,North,0,0.0,0.0,63,0.00,,,0.11,WUHU216HW,2013-02-19 18:36:00,
2013-02-19 13:42:00,57.4,44.9,30.02,North,0,0.0,0.0,63,0.00,,,0.11,WUHU216HW,2013-02-19 18:42:00,
2013-02-19 13:47:00,57.8,45.3,30.02,North,0,0.0,0.0,63,0.00,,,0.11,WUHU216HW,2013-02-19 18:47:00,
2013-02-19 13:52:00,58.1,46.0,30.02,North,0,0.0,0.0,64,0.00,,,0.11,WUHU216HW,2013-02-19 18:52:00,
2013-02-19 13:57:00,58.3,46.2,30.02,North,0,0.0,0.0,64,0.00,,,0.11,WUHU216HW,2013-02-19 18:57:00,
2013-02-19 14:02:00,58.7,46.9,30.01,North,0,0.0,0.0,65,0.00,,,0.11,WUHU216HW,2013-02-19 19:02:00,
2013-02-19 14:07:00,59.0,47.7,30.01,North,0,0.0,0.0,66,0.00,,,0.11,WUHU216HW,2013-02-19 19:07:00,
2013-02-19 14:12:00,59.4,48.1,30.01,North,0,0.0,0.0,66,0.00,,,0.11,WUHU216HW,2013-02-19 19:12:00,
2013-02-19 14:17:00,59.6,48.6,30.01,North,0,0.0,0.0,67,0.00,,,0.11,WUHU216HW,2013-02-19 19:17:00,
2013-02-19 14:22:00,59.8,48.8,30.01,North,0,0.0,0.0,67,0.00,,,0.11,WUHU216HW,2013-02-19 19:22:00,
2013-02-19 14:27:00,59.4,48.4,30.00,North,0,0.0,0.0,67,0.00,,,0.11,WUHU216HW,2013-02-19 19:27:00,
2013-02-19 14:32:00,59.4,48.9,30.00,North,0,0.0,0.0,68,0.00,,,0.11,WUHU216HW,2013-02-19 19:32:00,
2013-02-19 14:37:00,59.4,48.9,30.00,North,0,0.0,0.0,68,0.00,,,0.11,WUHU216HW,2013-02-19 19:37:00,
2013-02-19 14:42:00,59.2,48.7,30.00,North,0,0.0,0.0,68,0.00,,,0.11,WUHU216HW,2013-02-19 19:42:00,
2013-02-19 14:47:00,59.0,48.1,29.99,North,0,0.0,0.0,67,0.00,,,0.11,WUHU216HW,2013-02-19 19:47:00,
2013-02-19 14:52:00,58.7,47.7,29.99,North,0,0.0,0.0,67,0.00,,,0.11,WUHU216HW,2013-02-19 19:52:00,
2013-02-19 14:57:00,58.7,47.7,29.99,North,0,0.0,0.0,67,0.00,,,0.11,WUHU216HW,2013-02-19 19:57:00,
2013-02-19 15:02:00,58.3,47.3,29.99,North,0,0.0,0.0,67,0.00,,,0.11,WUHU216HW,2013-02-19 20:02:00,
2013-02-19 15:07:00,58.3,47.3,29.99,North,0,0.0,0.0,67,0.00,,,0.11,WUHU216HW,2013-02-19 20:07:00,
2013-02-19 15:12:00,58.0,46.6,29.98,North,0,0.0,0.0,66,0.00,,,0.11,WUHU216HW,2013-02-19 20:12:00,
2013-02-19 15:17:00,58.1,46.8,29.98,North,0,0.0,0.0,66,0.00,,,0.11,WUHU216HW,2013-02-19 20:17:00,
2013-02-19 15:22:00,58.5,47.2,29.98,North,0,0.0,0.0,66,0.00,,,0.11,WUHU216HW,2013-02-19 20:22:00,
2013-02-19 15:27:00,58.7,47.4,29.98,North,0,0.0,0.0,66,0.00,,,0.11,WUHU216HW,2013-02-19 20:27:00,
2013-02-19 15:32:00,58.7,47.7,29.98,North,0,0.0,0.0,67,0.00,,,0.11,WUHU216HW,2013-02-19 20:32:00,
2013-02-19 15:37:00,58.7,47.4,29.98,North,0,0.0,0.0,66,0.00,,,0.11,WUHU216HW,2013-02-19 20:37:00,
2013-02-19 15:43:00,58.7,47.4,29.98,North,0,0.0,0.0,66,0.00,,,0.11,WUHU216HW,2013-02-19 20:43:00,
2013-02-19 15:47:00,58.3,47.0,29.98,North,0,0.0,0.0,66,0.00,,,0.11,WUHU216HW,2013-02-19 20:47:00,
2013-02-19 15:53:00,58.1,46.8,29.97,North,0,0.0,0.0,66,0.00,,,0.11,WUHU216HW,2013-02-19 20:53:00,
2013-02-19 15:58:00,58.1,46.8,29.97,North,0,0.0,0.0,66,0.00,,,0.11,WUHU216HW,2013-02-19 20:58:00,
2013-02-19 16:03:00,58.0,46.6,29.97,North,0,0.0,0.0,66,0.00,,,0.11,WUHU216HW,2013-02-19 21:03:00,
2013-02-19 16:08:00,58.1,46.8,29.97,North,0,0.0,0.0,66,0.00,,,0.11,WUHU216HW,2013-02-19 21:08:00,
2013-02-19 16:13:00,58.1,46.8,29.97,North,0,0.0,0.0,66,0.00,,,0.11,WUHU216HW,2013-02-19 21:13:00,
2013-02-19 16:18:00,58.3,47.0,29.97,North,0,0.0,0.0,66,0.00,,,0.11,WUHU216HW,2013-02-19 21:18:00,
2013-02-19 16:23:00,58.1,46.8,29.97,North,0,0.0,0.0,66,0.00,,,0.11,WUHU216HW,2013-02-19 21:23:00,
2013-02-19 16:28:00,58.3,47.0,29.97,North,0,0.0,0.0,66,0.00,,,0.11,WUHU216HW,2013-02-19 21:28:00,
2013-02-19 16:33:00,58.1,46.8,29.96,North,0,0.0,0.0,66,0.00,,,0.11,WUHU216HW,2013-02-19 21:33:00,
2013-02-19 16:38:00,58.0,46.3,29.96,North,0,0.0,0.0,65,0.00,,,0.11,WUHU216HW,2013-02-19 21:38:00,
2013-02-19 16:43:00,57.8,46.1,29.96,North,0,0.0,0.0,65,0.00,,,0.11,WUHU216HW,2013-02-19 21:43:00,
2013-02-19 16:48:00,57.8,46.1,29.96,North,0,0.0,0.0,65,0.01,,,0.12,WUHU216HW,2013-02-19 21:48:00,
2013-02-19 16:53:00,57.6,45.5,29.96,North,0,0.0,0.0,64,0.01,,,0.12,WUHU216HW,2013-02-19 21:53:00,
2013-02-19 16:58:00,57.4,45.3,29.97,North,0,0.0,0.0,64,0.01,,,0.12,WUHU216HW,2013-02-19 21:58:00,
2013-02-19 17:03:00,57.1,45.4,29.97,North,0,0.0,0.0,65,0.01,,,0.12,WUHU216HW,2013-02-19 22:03:00,
2013-02-19 17:08:00,56.7,45.0,29.97,North,0,0.0,0.0,65,0.01,,,0.12,WUHU216HW,2013-02-19 22:08:00,
2013-02-19 17:13:00,56.7,45.0,29.97,North,0,0.0,0.0,65,0.01,,,0.12,WUHU216HW,2013-02-19 22:13:00,
2013-02-19 17:18:00,56.9,44.8,29.97,North,0,0.0,0.0,64,0.01,,,0.12,WUHU216HW,2013-02-19 22:18:00,
2013-02-19 17:23:00,56.7,44.7,29.98,North,0,0.0,0.0,64,0.01,,,0.12,WUHU216HW,2013-02-19 22:23:00,
2013-02-19 17:28:00,56.5,44.5,29.98,North,0,0.0,0.0,64,0.01,,,0.12,WUHU216HW,2013-02-19 22:28:00,
2013-02-19 17:33:00,56.2,44.1,29.97,North,0,0.0,0.0,64,0.01,,,0.12,WUHU216HW,2013-02-19 22:33:00,
2013-02-19 17:38:00,56.2,44.1,29.97,North,0,0.0,0.0,64,0.01,,,0.12,WUHU216HW,2013-02-19 22:38:00,
2013-02-19 17:44:00,56.2,43.8,29.97,North,0,0.0,0.0,63,0.01,,,0.12,WUHU216HW,2013-02-19 22:44:00,
2013-02-19 17:49:00,56.3,43.9,29.97,North,0,0.0,0.0,63,0.00,,,0.12,WUHU216HW,2013-02-19 22:49:00,
2013-02-19 17:54:00,56.5,44.0,29.97,North,0,0.0,0.0,63,0.00,,,0.12,WUHU216HW,2013-02-19 22:54:00,
2013-02-19 17:59:00,56.5,44.0,29.97,North,0,0.0,0.0,63,0.00,,,0.12,WUHU216HW,2013-02-19 22:59:00,
2013-02-19 18:04:00,56.5,43.7,29.97,North,0,0.0,0.0,62,0.00,,,0.12,WUHU216HW,2013-02-19 23:04:00,
2013-02-19 18:09:00,56.5,43.7,29.97,North,0,0.0,0.0,62,0.00,,,0.12,WUHU216HW,2013-02-19 23:09:00,
2013-02-19 18:14:00,56.7,43.8,29.97,North,0,0.0,0.0,62,0.00,,,0.12,WUHU216HW,2013-02-19 23:14:00,
2013-02-19 18:19:00,56.9,44.0,29.97,North,0,0.0,0.0,62,0.00,,,0.12,WUHU216HW,2013-02-19 23:19:00,
2013-02-19 18:24:00,57.1,44.2,29.97,North,0,0.0,0.0,62,0.00,,,0.12,WUHU216HW,2013-02-19 23:24:00,
2013-02-19 18:29:00,57.1,43.7,29.97,North,0,0.0,0.0,61,0.00,,,0.12,WUHU216HW,2013-02-19 23:29:00,
2013-02-19 18:34:00,57.1,43.7,29.97,North,0,0.0,0.0,61,0.00,,,0.12,WUHU216HW,2013-02-19 23:34:00,
2013-02-19 18:39:00,56.9,43.6,29.97,North,0,0.0,0.0,61,0.00,,,0.12,WUHU216HW,2013-02-19 23:39:00,
2013-02-19 18:44:00,56.9,43.6,29.97,North,0,0.0,0.0,61,0.00,,,0.12,WUHU216HW,2013-02-19 23:44:00,
2013-02-19 18:49:00,56.9,43.6,29.96,North,0,0.0,0.0,61,0.01,,,0.13,WUHU216HW,2013-02-19 23:49:00,
2013-02-19 18:54:00,56.7,43.4,29.96,North,0,0.0,0.0,61,0.01,,,0.13,WUHU216HW,2013-02-19 23:54:00,
2013-02-19 18:59:00,56.7,43.4,29.96,North,0,0.0,0.0,61,0.01,,,0.13,WUHU216HW,2013-02-19 23:59:00,
2013-02-19 19:05:00,56.7,43.4,29.96,North,0,0.0,0.0,61,0.01,,,0.13,WUHU216HW,2013-02-20 00:05:00,
2013-02-19 19:10:00,56.7,43.4,29.96,North,0,0.0,0.0,61,0.01,,,0.13,WUHU216HW,2013-02-20 00:10:00,
2013-02-19 19:15:00,56.7,43.0,29.96,North,0,0.0,0.0,60,0.01,,,0.13,WUHU216HW,2013-02-20 00:15:00,
2013-02-19 19:20:00,56.7,43.0,29.96,North,0,0.0,0.0,60,0.01,,,0.13,WUHU216HW,2013-02-20 00:20:00,
2013-02-19 19:25:00,56.7,43.0,29.96,North,0,0.0,0.0,60,0.01,,,0.13,WUHU216HW,2013-02-20 00:25:00,
2013-02-19 19:30:00,56.7,43.0,29.96,North,0,0.0,0.0,60,0.01,,,0.13,WUHU216HW,2013-02-20 00:30:00,
2013-02-19 19:35:00,56.5,42.8,29.96,North,0,0.0,0.0,60,0.01,,,0.13,WUHU216HW,2013-02-20 00:35:00,
2013-02-19 19:40:00,56.7,43.0,29.96,North,0,0.0,0.0,60,0.01,,,0.13,WUHU216HW,2013-02-20 00:40:00,
2013-02-19 19:45:00,56.7,43.0,29.96,North,0,0.0,0.0,60,0.00,,,0.13,WUHU216HW,2013-02-20 00:45:00,
2013-02-19 19:50:00,56.7,43.0,29.96,North,0,0.0,0.0,60,0.00,,,0.13,WUHU216HW,2013-02-20 00:50:00,
2013-02-19 19:55:00,56.7,43.0,29.96,North,0,0.0,0.0,60,0.00,,,0.13,WUHU216HW,2013-02-20 00:55:00,
2013-02-19 20:00:00,56.7,43.0,29.96,North,0,0.0,0.0,60,0.00,,,0.13,WUHU216HW,2013-02-20 01:00:00,
2013-02-19 20:05:00,56.5,42.8,29.96,North,0,0.0,0.0,60,0.00,,,0.13,WUHU216HW,2013-02-20 01:05:00,
2013-02-19 20:10:00,56.5,42.8,29.96,North,0,0.0,0.0,60,0.00,,,0.13,WUHU216HW,2013-02-20 01:10:00,
2013-02-19 20:15:00,56.7,43.0,29.96,North,0,0.0,0.0,60,0.00,,,0.13,WUHU216HW,2013-02-20 01:15:00,
2013-02-19 20:20:00,56.7,43.0,29.96,North,0,0.0,0.0,60,0.00,,,0.13,WUHU216HW,2013-02-20 01:20:00,
2013-02-19 20:25:00,56.9,43.2,29.97,North,0,0.0,0.0,60,0.00,,,0.13,WUHU216HW,2013-02-20 01:25:00,
2013-02-19 20:31:00,56.9,43.2,29.96,North,0,0.0,0.0,60,0.00,,,0.13,WUHU216HW,2013-02-20 01:31:00,
2013-02-19 20:36:00,56.7,43.0,29.96,North,0,0.0,0.0,60,0.00,,,0.13,WUHU216HW,2013-02-20 01:36:00,
2013-02-19 20:41:00,56.5,43.2,29.96,North,0,0.0,0.0,61,0.00,,,0.13,WUHU216HW,2013-02-20 01:41:00,
2013-02-19 20:46:00,56.3,43.0,29.96,North,0,0.0,0.0,61,0.00,,,0.13,WUHU216HW,2013-02-20 01:46:00,
2013-02-19 20:51:00,56.2,42.9,29.96,North,0,0.0,0.0,61,0.00,,,0.13,WUHU216HW,2013-02-20 01:51:00,
2013-02-19 20:56:00,56.0,42.8,29.96,North,0,0.0,0.0,61,0.00,,,0.13,WUHU216HW,2013-02-20 01:56:00,
2013-02-19 21:01:00,55.8,42.6,29.97,North,0,0.0,0.0,61,0.00,,,0.13,WUHU216HW,2013-02-20 02:01:00,
2013-02-19 21:06:00,55.8,42.9,29.97,North,0,0.0,0.0,62,0.00,,,0.13,WUHU216HW,2013-02-20 02:06:00,
2013-02-19 21:11:00,55.6,42.8,29.98,North,0,0.0,0.0,62,0.00,,,0.13,WUHU216HW,2013-02-20 02:11:00,
2013-02-19 21:16:00,55.4,42.6,29.98,North,0,0.0,0.0,62,0.00,,,0.13,WUHU216HW,2013-02-20 02:16:00,
2013-02-19 21:21:00,55.4,42.6,29.98,North,0,0.0,0.0,62,0.00,,,0.13,WUHU216HW,2013-02-20 02:21:00,
2013-02-19 21:26:00,55.4,42.6,29.98,North,0,0.0,0.0,62,0.00,,,0.13,WUHU216HW,2013-02-20 02:26:00,
2013-02-19 21:31:00,55.3,42.4,29.99,North,0,0.0,0.0,62,0.00,,,0.13,WUHU216HW,2013-02-20 02:31:00,
2013-02-19 21:36:00,55.1,42.3,29.99,North,0,0.0,0.0,62,0.00,,,0.13,WUHU216HW,2013-02-20 02:36:00,
2013-02-19 21:41:00,54.9,42.1,29.99,North,0,0.0,0.0,62,0.00,,,0.13,WUHU216HW,2013-02-20 02:41:00,
2013-02-19 21:47:00,54.7,42.0,29.99,North,0,0.0,0.0,62,0.00,,,0.13,WUHU216HW,2013-02-20 02:47:00,
2013-02-19 21:52:00,54.7,42.0,29.99,North,0,0.0,0.0,62,0.00,,,0.13,WUHU216HW,2013-02-20 02:52:00,
2013-02-19 21:57:00,54.4,41.2,30.00,North,0,0.0,0.0,61,0.00,,,0.13,WUHU216HW,2013-02-20 02:57:00,
2013-02-19 22:02:00,54.4,42.0,30.00,North,0,0.0,0.0,63,0.00,,,0.13,WUHU216HW,2013-02-20 03:02:00,
2013-02-19 22:07:00,54.2,42.2,30.00,North,0,0.0,0.0,64,0.00,,,0.13,WUHU216HW,2013-02-20 03:07:00,
2013-02-19 22:12:00,54.0,42.0,30.00,North,0,0.0,0.0,64,0.00,,,0.13,WUHU216HW,2013-02-20 03:12:00,
2013-02-19 22:17:00,53.8,41.9,30.00,North,0,0.0,0.0,64,0.00,,,0.13,WUHU216HW,2013-02-20 03:17:00,
2013-02-19 22:22:00,53.6,41.8,30.00,North,0,0.0,0.0,64,0.00,,,0.13,WUHU216HW,2013-02-20 03:22:00,
2013-02-19 22:27:00,53.5,41.9,30.00,North,0,0.0,0.0,65,0.00,,,0.13,WUHU216HW,2013-02-20 03:27:00,
2013-02-19 22:32:00,53.3,41.8,30.00,North,0,0.0,0.0,65,0.00,,,0.13,WUHU216HW,2013-02-20 03:32:00,
2013-02-19 22:37:00,52.9,41.4,30.00,North,0,0.0,0.0,65,0.00,,,0.13,WUHU216HW,2013-02-20 03:37:00,
2013-02-19 22:42:00,52.7,41.3,30.00,North,0,0.0,0.0,65,0.00,,,0.13,WUHU216HW,2013-02-20 03:42:00,
2013-02-19 22:47:00,52.6,41.1,30.00,North,0,0.0,0.0,65,0.00,,,0.13,WUHU216HW,2013-02-20 03:47:00,
2013-02-19 22:52:00,52.2,41.1,30.00,North,0,0.0,0.0,66,0.00,,,0.13,WUHU216HW,2013-02-20 03:52:00,
2013-02-19 22:57:00,52.2,40.8,30.00,North,0,0.0,0.0,65,0.00,,,0.13,WUHU216HW,2013-02-20 03:57:00,
2013-02-19 23:02:00,51.8,40.4,30.01,North,0,0.0,0.0,65,0.00,,,0.13,WUHU216HW,2013-02-20 04:02:00,
2013-02-19 23:07:00,51.5,40.1,30.00,North,0,0.0,0.0,65,0.00,,,0.13,WUHU216HW,2013-02-20 04:07:00,
2013-02-19 23:12:00,51.5,40.1,30.00,North,0,0.0,0.0,65,0.00,,,0.13,WUHU216HW,2013-02-20 04:12:00,
2013-02-19 23:18:00,51.3,39.9,30.00,North,0,0.0,0.0,65,0.00,,,0.13,WUHU216HW,2013-02-20 04:18:00,
2013-02-19 23:23:00,51.1,39.7,30.00,North,0,0.0,0.0,65,0.00,,,0.13,WUHU216HW,2013-02-20 04:23:00,
2013-02-19 23:28:00,50.8,39.4,30.00,North,0,0.0,0.0,65,0.00,,,0.13,WUHU216HW,2013-02-20 04:28:00,
2013-02-19 23:33:00,50.6,39.3,30.00,North,0,0.0,0.0,65,0.00,,,0.13,WUHU216HW,2013-02-20 04:33:00,
2013-02-19 23:38:00,50.4,38.6,30.00,North,0,0.0,0.0,64,0.00,,,0.13,WUHU216HW,2013-02-20 04:38:00,
2013-02-19 23:43:00,50.0,38.4,30.00,North,0,0.0,0.0,64,0.00,,,0.13,WUHU216HW,2013-02-20 04:43:00,
2013-02-19 23:48:00,49.9,38.2,30.00,North,0,0.0,0.0,64,0.00,,,0.13,WUHU216HW,2013-02-20 04:48:00,
2013-02-19 23:53:00,49.7,38.0,30.00,North,0,0.0,0.0,64,0.00,,,0.13,WUHU216HW,2013-02-20 04:53:00,
2013-02-19 23:58:00,49.5,37.8,29.99,North,0,0.0,0.0,64,0.00,,,0.13,WUHU216HW,2013-02-20 04:58:00,